RYR99MY LIMF-LICT

Flight info

Callsign RYR99MY
Flight time 1h 19m
Altitude 37000
Route LAGEN1W/36 LAGEN DCT EVROG DCT BAKRO DCT VELAD DCT TINTO DCT POKAV DCT BETOT DCT RUVIP DCT RONAB M740 ADUKA
Aircraft B738/M-SDE2E3FGHIRWXY/LB1

Departure

Time 2026-04-27 16:34
Airport Turin Airport (LIMF)

Arrival

Time 2026-04-27 17:53
Airport Vincenzo Florio Airport Trapani-Birgi (LICT)
Time Latitude Longitude Altitude Speed Heading
2026-04-27 16:14 45.19615 7.64602 990 ft 0 kts 95°
2026-04-27 16:29 45.19493 7.64683 991 ft 19 kts 183°
2026-04-27 16:30 45.19212 7.64665 988 ft 20 kts 182°
2026-04-27 16:30 45.18990 7.64650 987 ft 19 kts 183°
2026-04-27 16:31 45.18652 7.64648 984 ft 4 kts 147°
2026-04-27 16:31 45.18645 7.64658 986 ft 3 kts 135°
2026-04-27 16:32 45.18619 7.64832 978 ft 17 kts 88°
2026-04-27 16:32 45.18632 7.64884 984 ft 2 kts 15°
2026-04-27 16:33 45.18858 7.64888 981 ft 60 kts
2026-04-27 16:33 45.19512 7.64929 983 ft 126 kts
2026-04-27 16:33 45.20581 7.64996 997 ft 178 kts
2026-04-27 16:33 45.21893 7.65080 1459 ft 197 kts
2026-04-27 16:34 45.23304 7.65177 2172 ft 203 kts
2026-04-27 16:34 45.24740 7.65262 2742 ft 210 kts
2026-04-27 16:34 45.26212 7.65556 3092 ft 224 kts 23°
2026-04-27 16:34 45.27420 7.67020 3262 ft 238 kts 61°
2026-04-27 16:35 45.27798 7.69334 3506 ft 249 kts 95°
2026-04-27 16:35 45.27275 7.71726 3775 ft 264 kts 124°
2026-04-27 16:35 45.24218 7.75180 4219 ft 306 kts 148°
2026-04-27 16:36 45.22344 7.76836 4397 ft 326 kts 148°
2026-04-27 16:36 45.20376 7.78559 4792 ft 337 kts 148°
2026-04-27 16:36 45.18364 7.80323 5307 ft 342 kts 148°
2026-04-27 16:36 45.16335 7.82108 5878 ft 345 kts 148°
2026-04-27 16:37 45.14289 7.83917 6464 ft 348 kts 148°
2026-04-27 16:37 45.12224 7.85749 7025 ft 352 kts 148°
2026-04-27 16:37 45.10136 7.87604 7604 ft 357 kts 148°
2026-04-27 16:37 45.08025 7.89483 8222 ft 360 kts 148°
2026-04-27 16:38 45.05887 7.91384 8767 ft 366 kts 148°
2026-04-27 16:38 45.03722 7.93312 9461 ft 368 kts 147°
2026-04-27 16:38 45.01574 7.95225 10055 ft 373 kts 148°
2026-04-27 16:38 44.99340 7.97208 10652 ft 376 kts 148°
2026-04-27 16:39 44.97122 7.99176 11301 ft 378 kts 148°
2026-04-27 16:39 44.94911 8.01142 11884 ft 382 kts 147°
2026-04-27 16:39 44.92646 8.03154 12472 ft 387 kts 148°
2026-04-27 16:39 44.90358 8.05176 13190 ft 388 kts 148°
2026-04-27 16:40 44.88057 8.07207 13821 ft 392 kts 148°
2026-04-27 16:40 44.85727 8.09265 14359 ft 397 kts 148°
2026-04-27 16:40 44.83379 8.11338 15021 ft 399 kts 148°
2026-04-27 16:40 44.81020 8.13418 15589 ft 404 kts 148°
2026-04-27 16:41 44.78627 8.15525 16175 ft 407 kts 148°
2026-04-27 16:41 44.76214 8.17649 16813 ft 409 kts 148°
2026-04-27 16:41 44.73789 8.19782 17370 ft 413 kts 148°
2026-04-27 16:41 44.71335 8.21938 17887 ft 418 kts 149°
2026-04-27 16:42 44.69699 8.23375 18324 ft 419 kts 149°
2026-04-27 16:42 44.69397 8.23639 18404 ft 419 kts 149°
2026-04-27 16:42 44.67427 8.25368 18801 ft 421 kts 149°
2026-04-27 16:42 44.64925 8.27560 19294 ft 425 kts 149°
2026-04-27 16:43 44.62408 8.29761 19814 ft 427 kts 149°
2026-04-27 16:43 44.59888 8.31965 20351 ft 429 kts 149°
2026-04-27 16:43 44.57341 8.34189 20817 ft 432 kts 149°
2026-04-27 16:43 44.54779 8.36424 21306 ft 435 kts 149°
2026-04-27 16:44 44.52194 8.38678 21771 ft 438 kts 149°
2026-04-27 16:44 44.49596 8.40941 22225 ft 441 kts 149°
2026-04-27 16:44 44.46977 8.43220 22698 ft 443 kts 149°
2026-04-27 16:44 44.44353 8.45500 23123 ft 446 kts 149°
2026-04-27 16:45 44.41708 8.47795 23578 ft 448 kts 149°
2026-04-27 16:45 44.39071 8.50143 23960 ft 451 kts 146°
2026-04-27 16:45 44.36590 8.52873 24313 ft 454 kts 141°
2026-04-27 16:45 44.34176 8.55733 24691 ft 456 kts 140°
2026-04-27 16:46 44.31799 8.58601 25017 ft 459 kts 140°
2026-04-27 16:46 44.29376 8.61524 25330 ft 462 kts 140°
2026-04-27 16:46 44.26929 8.64458 25646 ft 464 kts 140°
2026-04-27 16:46 44.24468 8.67386 25952 ft 466 kts 141°
2026-04-27 16:47 44.21976 8.70331 26242 ft 469 kts 141°
2026-04-27 16:47 44.19483 8.73262 26534 ft 471 kts 141°
2026-04-27 16:47 44.16959 8.76220 26838 ft 473 kts 141°
2026-04-27 16:47 44.14434 8.79175 27127 ft 475 kts 141°
2026-04-27 16:48 44.11896 8.82141 27398 ft 477 kts 141°
2026-04-27 16:48 44.09345 8.85119 27648 ft 480 kts 141°
2026-04-27 16:48 44.06782 8.88109 27936 ft 481 kts 141°
2026-04-27 16:49 44.01653 8.94082 28744 ft 479 kts 141°
2026-04-27 16:49 43.99098 8.97053 29131 ft 479 kts 141°
2026-04-27 16:49 43.96543 9.00020 29489 ft 479 kts 141°
2026-04-27 16:49 43.93986 9.02987 29875 ft 478 kts 141°
2026-04-27 16:50 43.91435 9.05942 30250 ft 477 kts 141°
2026-04-27 16:50 43.88916 9.08858 30570 ft 477 kts 141°
2026-04-27 16:50 43.86373 9.11798 30915 ft 475 kts 141°
2026-04-27 16:50 43.83832 9.14733 31259 ft 474 kts 141°
2026-04-27 16:51 43.81300 9.17653 31569 ft 473 kts 141°
2026-04-27 16:51 43.78763 9.20575 31865 ft 473 kts 141°
2026-04-27 16:51 43.76234 9.23485 32164 ft 473 kts 141°
2026-04-27 16:51 43.73707 9.26390 32456 ft 472 kts 141°
2026-04-27 16:52 43.71183 9.29288 32778 ft 471 kts 141°
2026-04-27 16:52 43.68693 9.32144 33100 ft 470 kts 141°
2026-04-27 16:52 43.66180 9.35023 33398 ft 469 kts 141°
2026-04-27 16:52 43.63662 9.37904 33667 ft 469 kts 141°
2026-04-27 16:53 43.61154 9.40770 33934 ft 469 kts 141°
2026-04-27 16:53 43.58638 9.43642 34206 ft 468 kts 141°
2026-04-27 16:53 43.56131 9.46502 34439 ft 467 kts 141°
2026-04-27 16:53 43.53619 9.49364 34646 ft 468 kts 141°
2026-04-27 16:54 43.51110 9.52219 34844 ft 468 kts 141°
2026-04-27 16:54 43.48601 9.55071 35076 ft 467 kts 141°
2026-04-27 16:54 43.46097 9.57913 35325 ft 466 kts 141°
2026-04-27 16:54 43.43591 9.60756 35534 ft 466 kts 142°
2026-04-27 16:55 43.41084 9.63596 35711 ft 466 kts 142°
2026-04-27 16:55 43.38575 9.66435 35850 ft 468 kts 142°
2026-04-27 16:55 43.36094 9.69241 35997 ft 468 kts 142°
2026-04-27 16:55 43.33578 9.72082 36201 ft 468 kts 142°
2026-04-27 16:56 43.31369 9.74575 36403 ft 467 kts 142°
2026-04-27 16:56 43.28869 9.77394 36630 ft 466 kts 142°
2026-04-27 16:56 43.26358 9.80220 36800 ft 466 kts 142°
2026-04-27 16:56 43.23854 9.83045 36958 ft 466 kts 142°
2026-04-27 16:57 43.21355 9.85886 37097 ft 467 kts 142°
2026-04-27 16:57 43.18818 9.88711 37087 ft 468 kts 145°
2026-04-27 16:57 43.13329 9.93298 37094 ft 464 kts 153°
2026-04-27 16:58 43.07712 9.97596 37098 ft 461 kts 153°
2026-04-27 16:58 43.02122 10.01900 37098 ft 460 kts 152°
2026-04-27 16:59 42.96564 10.06226 37098 ft 459 kts 152°
2026-04-27 16:59 42.91016 10.10556 37097 ft 459 kts 152°
2026-04-27 17:00 42.82680 10.17047 37093 ft 461 kts 152°
2026-04-27 17:01 42.77083 10.21389 37106 ft 465 kts 152°
2026-04-27 17:01 42.71435 10.25765 37116 ft 469 kts 152°
2026-04-27 17:02 42.65744 10.30164 37106 ft 471 kts 152°
2026-04-27 17:02 42.60084 10.34531 37100 ft 471 kts 152°
2026-04-27 17:03 42.54385 10.38918 37095 ft 470 kts 152°
2026-04-27 17:03 42.48715 10.43274 37097 ft 468 kts 152°
2026-04-27 17:04 42.43052 10.47614 37097 ft 466 kts 153°
2026-04-27 17:04 42.37414 10.51927 37101 ft 465 kts 153°
2026-04-27 17:05 42.31794 10.56216 37103 ft 463 kts 153°
2026-04-27 17:05 42.26184 10.60489 37102 ft 462 kts 153°
2026-04-27 17:06 42.20593 10.64739 37100 ft 461 kts 153°
2026-04-27 17:06 42.15041 10.68952 37097 ft 460 kts 153°
2026-04-27 17:07 42.09455 10.73182 37099 ft 460 kts 153°
2026-04-27 17:07 42.03826 10.77270 37091 ft 459 kts 159°
2026-04-27 17:08 41.97904 10.80470 37094 ft 458 kts 161°
2026-04-27 17:08 41.91931 10.83528 37105 ft 459 kts 161°
2026-04-27 17:09 41.86002 10.86626 37104 ft 460 kts 160°
2026-04-27 17:09 41.80030 10.89790 37102 ft 461 kts 160°
2026-04-27 17:10 41.74054 10.92960 37105 ft 462 kts 160°
2026-04-27 17:10 41.68068 10.96128 37097 ft 463 kts 160°
2026-04-27 17:11 41.62072 10.99292 37108 ft 463 kts 160°
2026-04-27 17:11 41.53063 11.04035 37106 ft 464 kts 160°
2026-04-27 17:12 41.44091 11.08745 37100 ft 464 kts 160°
2026-04-27 17:13 41.38089 11.11892 37101 ft 463 kts 160°
2026-04-27 17:13 41.32091 11.15034 37101 ft 463 kts 160°
2026-04-27 17:14 41.26089 11.18171 37107 ft 463 kts 160°
2026-04-27 17:14 41.20104 11.21293 37101 ft 462 kts 160°
2026-04-27 17:15 41.14108 11.24414 37106 ft 462 kts 160°
2026-04-27 17:15 41.08114 11.27529 37108 ft 462 kts 160°
2026-04-27 17:16 41.02159 11.30617 37104 ft 462 kts 160°
2026-04-27 17:16 40.96169 11.33717 37116 ft 462 kts 160°
2026-04-27 17:17 40.91147 11.36312 37101 ft 462 kts 160°
2026-04-27 17:17 40.85186 11.39388 37104 ft 462 kts 160°
2026-04-27 17:18 40.76179 11.44017 37111 ft 463 kts 160°
2026-04-27 17:18 40.70174 11.47096 37097 ft 463 kts 160°
2026-04-27 17:19 40.64159 11.50175 37104 ft 463 kts 160°
2026-04-27 17:19 40.58155 11.53244 37101 ft 463 kts 160°
2026-04-27 17:20 40.52141 11.56312 37114 ft 464 kts 160°
2026-04-27 17:20 40.46124 11.59376 37109 ft 464 kts 160°
2026-04-27 17:21 40.40138 11.62418 37106 ft 464 kts 160°
2026-04-27 17:21 40.34117 11.65470 37110 ft 464 kts 160°
2026-04-27 17:22 40.28078 11.68524 37123 ft 466 kts 160°
2026-04-27 17:22 40.22017 11.71585 37114 ft 467 kts 160°
2026-04-27 17:23 40.15953 11.74643 37109 ft 467 kts 160°
2026-04-27 17:23 40.09889 11.77695 37106 ft 468 kts 160°
2026-04-27 17:24 40.03811 11.80744 37107 ft 468 kts 160°
2026-04-27 17:24 39.97759 11.83755 37108 ft 468 kts 161°
2026-04-27 17:25 39.91671 11.86780 37107 ft 468 kts 161°
2026-04-27 17:25 39.85440 11.89185 37105 ft 465 kts 174°
2026-04-27 17:26 39.79015 11.89624 37108 ft 462 kts 180°
2026-04-27 17:26 39.72577 11.89827 37104 ft 462 kts 180°
2026-04-27 17:27 39.66147 11.90074 37105 ft 462 kts 180°
2026-04-27 17:27 39.59711 11.90362 37108 ft 462 kts 180°
2026-04-27 17:28 39.53282 11.90663 37109 ft 462 kts 180°
2026-04-27 17:29 39.43682 11.91110 37107 ft 462 kts 180°
2026-04-27 17:29 39.37238 11.91408 37105 ft 462 kts 180°
2026-04-27 17:30 39.30770 11.91704 36464 ft 469 kts 180°
2026-04-27 17:30 39.24281 11.92003 35245 ft 466 kts 180°
2026-04-27 17:30 39.21035 11.92152 34602 ft 465 kts 180°
2026-04-27 17:31 39.17799 11.92301 33917 ft 465 kts 180°
2026-04-27 17:31 39.14563 11.92449 33144 ft 465 kts 180°
2026-04-27 17:31 39.11364 11.92596 32430 ft 465 kts 180°
2026-04-27 17:31 39.08126 11.92744 31702 ft 465 kts 180°
2026-04-27 17:32 39.04900 11.92891 30958 ft 465 kts 180°
2026-04-27 17:32 38.98412 11.93187 29313 ft 467 kts 180°
2026-04-27 17:32 38.95165 11.93335 28644 ft 463 kts 179°
2026-04-27 17:33 38.91967 11.93481 28038 ft 458 kts 179°
2026-04-27 17:33 38.88796 11.93626 27482 ft 452 kts 179°
2026-04-27 17:33 38.85673 11.93768 26897 ft 448 kts 179°
2026-04-27 17:33 38.82572 11.93909 26333 ft 444 kts 179°
2026-04-27 17:34 38.79499 11.94048 25766 ft 440 kts 179°
2026-04-27 17:34 38.76445 11.94186 25221 ft 436 kts 179°
2026-04-27 17:34 38.73428 11.94323 24683 ft 433 kts 179°
2026-04-27 17:34 38.70419 11.94459 24132 ft 430 kts 179°
2026-04-27 17:35 38.67473 11.94592 23553 ft 428 kts 179°
2026-04-27 17:35 38.64462 11.94728 22914 ft 425 kts 179°
2026-04-27 17:35 38.61549 11.94859 22352 ft 422 kts 179°
2026-04-27 17:35 38.58633 11.94995 21805 ft 417 kts 178°
2026-04-27 17:36 38.55795 11.95684 21269 ft 415 kts 160°
2026-04-27 17:36 38.53263 11.97391 20870 ft 410 kts 148°
2026-04-27 17:36 38.50904 11.99413 20334 ft 407 kts 146°
2026-04-27 17:36 38.48583 12.01463 19809 ft 404 kts 146°
2026-04-27 17:37 38.46267 12.03497 19284 ft 402 kts 147°
2026-04-27 17:37 38.43959 12.05495 18773 ft 400 kts 147°
2026-04-27 17:37 38.41654 12.07464 18212 ft 398 kts 147°
2026-04-27 17:37 38.39349 12.09420 17626 ft 396 kts 147°
2026-04-27 17:38 38.37062 12.11356 17082 ft 393 kts 147°
2026-04-27 17:38 38.34795 12.13273 16554 ft 391 kts 148°
2026-04-27 17:38 38.32536 12.15185 16020 ft 389 kts 148°
2026-04-27 17:38 38.30289 12.17087 15502 ft 387 kts 148°
2026-04-27 17:39 38.28077 12.18959 14993 ft 385 kts 148°
2026-04-27 17:39 38.25820 12.20869 14474 ft 384 kts 148°
2026-04-27 17:39 38.23625 12.22724 13945 ft 383 kts 148°
2026-04-27 17:39 38.21401 12.24603 13373 ft 382 kts 148°
2026-04-27 17:40 38.19190 12.26468 12849 ft 380 kts 148°
2026-04-27 17:40 38.16994 12.28320 12330 ft 378 kts 147°
2026-04-27 17:40 38.14803 12.30167 11827 ft 376 kts 147°
2026-04-27 17:40 38.12629 12.31998 11320 ft 374 kts 147°
2026-04-27 17:41 38.10482 12.33805 11079 ft 364 kts 147°
2026-04-27 17:41 38.08397 12.35560 10906 ft 353 kts 147°
2026-04-27 17:41 38.06377 12.37258 10747 ft 343 kts 147°
2026-04-27 17:41 38.04415 12.38907 10599 ft 333 kts 148°
2026-04-27 17:42 38.02529 12.40490 10462 ft 324 kts 148°
2026-04-27 17:42 38.00673 12.42047 10325 ft 315 kts 148°
2026-04-27 17:42 37.98867 12.43561 10195 ft 307 kts 148°
2026-04-27 17:42 37.97106 12.45037 10013 ft 301 kts 148°
2026-04-27 17:43 37.95363 12.46496 9704 ft 300 kts 148°
2026-04-27 17:43 37.93629 12.47947 9403 ft 298 kts 147°
2026-04-27 17:43 37.91897 12.49395 9107 ft 298 kts 148°
2026-04-27 17:43 37.90167 12.50839 8804 ft 296 kts 147°
2026-04-27 17:44 37.88414 12.52198 8497 ft 295 kts 152°
2026-04-27 17:44 37.86605 12.53405 8208 ft 293 kts 154°
2026-04-27 17:44 37.84787 12.54576 7911 ft 292 kts 154°
2026-04-27 17:44 37.82986 12.55738 7618 ft 290 kts 153°
2026-04-27 17:45 37.81195 12.56904 7347 ft 289 kts 153°
2026-04-27 17:45 37.79410 12.58073 7048 ft 288 kts 153°
2026-04-27 17:45 37.77629 12.59247 6753 ft 288 kts 153°
2026-04-27 17:45 37.75862 12.60414 6463 ft 287 kts 153°
2026-04-27 17:46 37.74117 12.61565 6149 ft 286 kts 153°
2026-04-27 17:46 37.72353 12.62730 5844 ft 286 kts 153°
2026-04-27 17:46 37.70708 12.64114 5495 ft 286 kts 134°
2026-04-27 17:46 37.69706 12.66263 5192 ft 286 kts 107°
2026-04-27 17:47 37.69563 12.68742 4900 ft 285 kts 81°
2026-04-27 17:47 37.69952 12.70316 4736 ft 283 kts 64°
2026-04-27 17:47 37.71688 12.72680 4579 ft 273 kts 30°
2026-04-27 17:47 37.73457 12.73392 4486 ft 265 kts
2026-04-27 17:48 37.75243 12.73044 4302 ft 261 kts 333°
2026-04-27 17:48 37.76722 12.71757 4103 ft 257 kts 318°
2026-04-27 17:48 37.78012 12.70224 3950 ft 256 kts 315°
2026-04-27 17:48 37.79189 12.68519 3665 ft 255 kts 308°
2026-04-27 17:49 37.80231 12.66785 3328 ft 240 kts 307°
2026-04-27 17:49 37.81195 12.65166 3015 ft 228 kts 307°
2026-04-27 17:49 37.82129 12.63620 2729 ft 216 kts 308°
2026-04-27 17:49 37.83019 12.62155 2455 ft 203 kts 308°
2026-04-27 17:50 37.83581 12.61234 2292 ft 196 kts 308°
2026-04-27 17:50 37.85395 12.58237 1732 ft 167 kts 308°
2026-04-27 17:50 37.86087 12.57102 1497 ft 161 kts 309°
2026-04-27 17:51 37.86781 12.55959 1286 ft 163 kts 309°
2026-04-27 17:51 37.87467 12.54848 1056 ft 160 kts 308°
2026-04-27 17:51 37.88129 12.53746 845 ft 155 kts 308°
2026-04-27 17:51 37.88781 12.52670 646 ft 154 kts 308°
2026-04-27 17:52 37.89416 12.51567 409 ft 155 kts 309°
2026-04-27 17:52 37.90084 12.50512 202 ft 153 kts 307°
2026-04-27 17:52 37.90721 12.49474 48 ft 143 kts 308°
2026-04-27 17:52 37.91105 12.48857 27 ft 128 kts 308°
2026-04-27 17:53 37.91615 12.48028 16 ft 47 kts 308°
2026-04-27 17:53 37.91730 12.47841 17 ft 23 kts 307°
2026-04-27 17:53 37.91829 12.47689 17 ft 19 kts 319°
2026-04-27 17:53 37.91846 12.47655 18 ft 1 kts 233°
2026-04-27 17:54 37.91833 12.47667 20 ft 5 kts 130°
2026-04-27 17:54 37.91798 12.47729 17 ft 13 kts 126°
2026-04-27 17:54 37.91724 12.47847 17 ft 20 kts 128°
2026-04-27 17:54 37.91632 12.47998 15 ft 23 kts 128°
2026-04-27 17:55 37.91528 12.48168 19 ft 25 kts 127°
2026-04-27 17:55 37.91423 12.48339 23 ft 24 kts 128°
2026-04-27 17:55 37.91324 12.48499 26 ft 23 kts 128°
2026-04-27 17:55 37.91229 12.48655 28 ft 22 kts 127°
2026-04-27 17:56 37.91128 12.48816 26 ft 25 kts 128°
2026-04-27 17:56 37.91024 12.48983 27 ft 23 kts 127°
2026-04-27 17:56 37.90928 12.49143 27 ft 23 kts 127°
2026-04-27 17:56 37.90819 12.49316 31 ft 25 kts 129°
2026-04-27 17:57 37.90686 12.49435 34 ft 23 kts 155°
2026-04-27 17:57 37.90540 12.49511 33 ft 22 kts 157°
2026-04-27 17:57 37.90437 12.49546 31 ft 8 kts 204°
2026-04-27 17:57 37.90384 12.49554 29 ft 9 kts 132°
2026-04-27 17:58 37.90348 12.49614 30 ft 8 kts 129°
2026-04-27 17:58 37.90313 12.49662 30 ft 4 kts 153°
2026-04-27 17:58 37.90294 12.49637 30 ft 4 kts 247°
2026-04-27 17:58 37.90285 12.49603 30 ft 2 kts 259°
2026-04-27 17:59 37.90285 12.49599 30 ft 0 kts 260°